When you browse on this site, cookies collect data to enhance your experience and personalize the content and advertising you see.
Visit our Privacy Policy to learn more. By continuing to use the site, you agree to this use of cookies and data.
  • In Österreich
  • Länderverzeichnis
  • Für 7 Tage
  • Wassertemperatur
  • Satellitenkarten
  • Wetterkarte
  • News
  • Widgets
  • user-avatar
    Anmelden

    Stündliche Wetter Mongu

    Heute, 18 November, Sonntag

    Zeit Temperatur Niederschläge Wind Luftdruck Luftfeuchtigkeit
    00:00 +25°C° 0 mm 2 m/S 673 mmHg 55%
    01:00 +24°C° 0 mm 2 m/S 673 mmHg 59%
    02:00 +24°C° 0 mm 2 m/S 673 mmHg 58%
    03:00 +24°C° 0 mm 2 m/S 673 mmHg 61%
    04:00 +23°C° 0 mm 2 m/S 673 mmHg 64%
    05:00 +23°C° 0 mm 2 m/S 673 mmHg 66%
    06:00 +25°C° 0 mm 2 m/S 673 mmHg 61%
    07:00 +27°C° 0 mm 2 m/S 674 mmHg 55%
    08:00 +29°C° 0 mm 2 m/S 675 mmHg 48%
    09:00 +32°C° 0 mm 2 m/S 675 mmHg 39%
    10:00 +37°C° 0 mm 2 m/S 675 mmHg 30%
    11:00 +40°C° 0 mm 1 m/S 676 mmHg 21%
    12:00 +39°C° 0 mm 2 m/S 675 mmHg 21%
    13:00 +38°C° 0 mm 2 m/S 674 mmHg 21%
    14:00 +36°C° 0 mm 2 m/S 673 mmHg 25%
    15:00 +36°C° 0.1 mm 2 m/S 673 mmHg 24%
    16:00 +37°C° 0.1 mm 2 m/S 673 mmHg 24%
    17:00 +37°C° 0.1 mm 2 m/S 673 mmHg 24%
    18:00 +34°C° 0 mm 2 m/S 673 mmHg 28%
    19:00 +31°C° 0 mm 2 m/S 673 mmHg 33%
    20:00 +29°C° 0 mm 2 m/S 673 mmHg 37%
    21:00 +28°C° 0 mm 2 m/S 673 mmHg 41%
    22:00 +27°C° 0 mm 1 m/S 673 mmHg 45%
    23:00 +26°C° 0 mm 1 m/S 673 mmHg 49%

    Morgen, 19 November, Montag

    Zeit Temperatur Niederschläge Wind Luftdruck Luftfeuchtigkeit
    00:00 +25°C° 0 mm 1 m/S 673 mmHg 52%
    01:00 +24°C° 0 mm 2 m/S 673 mmHg 56%
    02:00 +24°C° 0 mm 2 m/S 673 mmHg 60%
    03:00 +23°C° 0 mm 2 m/S 673 mmHg 62%
    04:00 +23°C° 0 mm 1 m/S 672 mmHg 64%
    05:00 +23°C° 0 mm 1 m/S 672 mmHg 67%
    06:00 +25°C° 0 mm 2 m/S 673 mmHg 60%
    07:00 +27°C° 0 mm 2 m/S 674 mmHg 53%
    08:00 +29°C° 0 mm 2 m/S 675 mmHg 46%
    09:00 +33°C° 0 mm 3 m/S 675 mmHg 38%
    10:00 +35°C° 0 mm 3 m/S 675 mmHg 31%
    11:00 +38°C° 0 mm 4 m/S 675 mmHg 23%
    12:00 +38°C° 0 mm 3 m/S 675 mmHg 22%
    13:00 +38°C° 0 mm 3 m/S 674 mmHg 21%
    14:00 +38°C° 0 mm 3 m/S 673 mmHg 20%
    15:00 +38°C° 0 mm 3 m/S 673 mmHg 20%
    16:00 +38°C° 0 mm 2 m/S 672 mmHg 21%
    17:00 +37°C° 0 mm 2 m/S 672 mmHg 21%
    18:00 +34°C° 0 mm 1 m/S 672 mmHg 24%
    19:00 +33°C° 0 mm 1 m/S 672 mmHg 26%
    20:00 +29°C° 0 mm 0 m/S 672 mmHg 29%
    21:00 +30°C° 0 mm 1 m/S 673 mmHg 32%
    22:00 +29°C° 0 mm 2 m/S 673 mmHg 35%
    23:00 +29°C° 0 mm 3 m/S 674 mmHg 37%

    übermorgen, 20 November, Dienstag

    Zeit Temperatur Niederschläge Wind Luftdruck Luftfeuchtigkeit
    00:00 +28°C° 0 mm 3 m/S 673 mmHg 41%
    01:00 +28°C° 0 mm 3 m/S 673 mmHg 45%
    02:00 +27°C° 0 mm 3 m/S 673 mmHg 49%
    03:00 +26°C° 0 mm 3 m/S 673 mmHg 54%
    04:00 +25°C° 0 mm 2 m/S 673 mmHg 59%
    05:00 +24°C° 0 mm 2 m/S 673 mmHg 64%
    06:00 +26°C° 0 mm 2 m/S 673 mmHg 61%
    07:00 +27°C° 0 mm 2 m/S 674 mmHg 58%
    08:00 +28°C° 0 mm 3 m/S 675 mmHg 54%
    09:00 +31°C° 0 mm 3 m/S 675 mmHg 45%
    10:00 +34°C° 0 mm 3 m/S 675 mmHg 37%
    11:00 +37°C° 0 mm 3 m/S 676 mmHg 28%
    12:00 +37°C° 0 mm 3 m/S 675 mmHg 26%
    13:00 +38°C° 0 mm 2 m/S 674 mmHg 24%
    14:00 +38°C° 0 mm 2 m/S 672 mmHg 22%
    15:00 +38°C° 0 mm 2 m/S 672 mmHg 22%
    16:00 +38°C° 0 mm 2 m/S 672 mmHg 22%
    17:00 +36°C° 0 mm 1 m/S 671 mmHg 21%
    18:00 +35°C° 0 mm 1 m/S 672 mmHg 24%
    19:00 +33°C° 0 mm 1 m/S 672 mmHg 27%
    20:00 +31°C° 0 mm 1 m/S 672 mmHg 30%
    21:00 +30°C° 0 mm 1 m/S 672 mmHg 32%
    22:00 +29°C° 0 mm 1 m/S 672 mmHg 33%
    23:00 +28°C° 0 mm 1 m/S 672 mmHg 35%

    21 November, Mittwoch

    Zeit Temperatur Niederschläge Wind Luftdruck Luftfeuchtigkeit
    00:00 +27°C° 0 mm 1 m/S 672 mmHg 38%
    01:00 +27°C° 0 mm 1 m/S 671 mmHg 41%
    02:00 +26°C° 0 mm 2 m/S 671 mmHg 43%
    03:00 +26°C° 0 mm 2 m/S 671 mmHg 48%
    04:00 +26°C° 0 mm 3 m/S 671 mmHg 52%
    05:00 +25°C° 0 mm 3 m/S 671 mmHg 57%
    06:00 +27°C° 0 mm 3 m/S 672 mmHg 54%
    07:00 +28°C° 0 mm 4 m/S 673 mmHg 51%
    08:00 +29°C° 0 mm 4 m/S 674 mmHg 48%
    09:00 +33°C° 0 mm 4 m/S 674 mmHg 41%
    10:00 +35°C° 0 mm 4 m/S 675 mmHg 35%
    11:00 +37°C° 0 mm 3 m/S 675 mmHg 29%
    12:00 +38°C° 0 mm 3 m/S 674 mmHg 27%
    13:00 +38°C° 0 mm 2 m/S 673 mmHg 25%
    14:00 +38°C° 0 mm 2 m/S 672 mmHg 23%
    15:00 +37°C° 0 mm 2 m/S 672 mmHg 25%
    16:00 +37°C° 0 mm 2 m/S 671 mmHg 27%
    17:00 +36°C° 0 mm 2 m/S 671 mmHg 29%
    18:00 +34°C° 0.9 mm 3 m/S 671 mmHg 36%
    19:00 +32°C° 0.9 mm 5 m/S 672 mmHg 44%
    20:00 +28°C° 0.9 mm 6 m/S 672 mmHg 52%
    21:00 +28°C° 0.4 mm 5 m/S 672 mmHg 53%
    22:00 +27°C° 0.4 mm 3 m/S 672 mmHg 53%
    23:00 +27°C° 0.4 mm 2 m/S 673 mmHg 53%

    22 November, Donnerstag

    Zeit Temperatur Niederschläge Wind Luftdruck Luftfeuchtigkeit
    00:00 +26°C° 0.5 mm 3 m/S 672 mmHg 57%
    01:00 +26°C° 0.5 mm 3 m/S 672 mmHg 60%
    02:00 +25°C° 0.5 mm 3 m/S 671 mmHg 64%
    03:00 +25°C° 0.3 mm 3 m/S 671 mmHg 67%
    04:00 +23°C° 0.3 mm 4 m/S 671 mmHg 71%
    05:00 +23°C° 0.3 mm 4 m/S 672 mmHg 74%
    06:00 +25°C° 0 mm 4 m/S 672 mmHg 70%
    07:00 +26°C° 0 mm 4 m/S 673 mmHg 66%
    08:00 +27°C° 0 mm 4 m/S 673 mmHg 62%
    09:00 +30°C° 0 mm 3 m/S 674 mmHg 51%
    10:00 +34°C° 0 mm 3 m/S 674 mmHg 41%
    11:00 +37°C° 0 mm 3 m/S 674 mmHg 30%
    12:00 +38°C° 0 mm 2 m/S 674 mmHg 27%
    13:00 +39°C° 0 mm 2 m/S 673 mmHg 24%
    14:00 +40°C° 0 mm 1 m/S 672 mmHg 21%
    15:00 +38°C° 0.1 mm 2 m/S 672 mmHg 24%
    16:00 +37°C° 0.1 mm 2 m/S 671 mmHg 27%
    17:00 +35°C° 0.1 mm 3 m/S 671 mmHg 30%
    18:00 +33°C° 0.9 mm 3 m/S 671 mmHg 38%
    19:00 +30°C° 0.9 mm 4 m/S 671 mmHg 45%
    20:00 +28°C° 0.9 mm 4 m/S 671 mmHg 53%
    21:00 +28°C° 0.1 mm 3 m/S 671 mmHg 52%
    22:00 +28°C° 0.1 mm 2 m/S 672 mmHg 52%
    23:00 +28°C° 0.1 mm 2 m/S 672 mmHg 51%

    23 November, Freitag

    Zeit Temperatur Niederschläge Wind Luftdruck Luftfeuchtigkeit
    00:00 +27°C° 0.4 mm 2 m/S 672 mmHg 54%
    01:00 +27°C° 0.4 mm 3 m/S 672 mmHg 57%
    02:00 +26°C° 0.4 mm 4 m/S 672 mmHg 61%
    03:00 +26°C° 0.1 mm 4 m/S 672 mmHg 63%
    04:00 +26°C° 0.1 mm 4 m/S 672 mmHg 65%
    05:00 +25°C° 0.1 mm 4 m/S 672 mmHg 67%
    06:00 +26°C° 0 mm 3 m/S 673 mmHg 64%
    07:00 +27°C° 0 mm 3 m/S 674 mmHg 60%
    08:00 +28°C° 0 mm 3 m/S 674 mmHg 57%
    09:00 +30°C° 0 mm 3 m/S 675 mmHg 51%
    10:00 +32°C° 0 mm 2 m/S 675 mmHg 44%
    11:00 +34°C° 0 mm 2 m/S 675 mmHg 38%
    12:00 +36°C° 0 mm 2 m/S 675 mmHg 35%
    13:00 +37°C° 0 mm 2 m/S 674 mmHg 31%
    14:00 +39°C° 0 mm 1 m/S 674 mmHg 28%
    15:00 +37°C° 0 mm 2 m/S 673 mmHg 32%
    16:00 +35°C° 0 mm 2 m/S 672 mmHg 37%
    17:00 +33°C° 0 mm 3 m/S 671 mmHg 41%
    18:00 +30°C° 0.4 mm 3 m/S 672 mmHg 50%
    19:00 +29°C° 0.4 mm 2 m/S 672 mmHg 58%
    20:00 +27°C° 0.4 mm 2 m/S 672 mmHg 66%
    21:00 +26°C° 1.3 mm 3 m/S 673 mmHg 71%
    22:00 +25°C° 1.3 mm 3 m/S 673 mmHg 75%
    23:00 +23°C° 1.3 mm 4 m/S 673 mmHg 80%
    Mehr zeigen